FW6490 Weather Reports


time (UTC)temp
C
wind
direction
speed
KPH
gust
KPH
rain 1hr
cm
rain 24hr
cm
rain mn
cm
humidity
%
barometer
mb
20260905202607 28 59 4.8 11.3 0.00 0.00 0.00 49 1008.9
20260905201058 28 61 8.0 14.5 0.00 0.00 0.00 49 1008.9
20260905200558 27 49 6.4 16.1 0.00 0.00 0.00 51 1008.9
20260905200057 27 40 3.2 16.1 0.00 0.00 0.00 53 1008.9
20260905195555 27 341 4.8 16.1 0.00 0.00 0.00 53 1009.2
20260905195056 26 125 6.4 16.1 0.00 0.00 0.00 54 1009.2
20260905194555 26 134 6.4 16.1 0.00 0.00 0.00 54 1009.2
20260905194056 26 115 4.8 16.1 0.00 0.00 0.00 53 1009.2
20260905193555 26 134 4.8 12.9 0.00 0.00 0.00 54 1009.2
20260905193058 26 126 4.8 12.9 0.00 0.00 0.00 54 1009.2
20260905191044 26 66 6.4 16.1 0.00 0.00 0.00 55 1009.2
20260905190545 26 129 4.8 16.1 0.00 0.00 0.00 55 1009.2
20260905190044 26 153 3.2 8.0 0.00 0.00 0.00 56 1009.2
20260905185541 26 108 3.2 11.3 0.00 0.00 0.00 56 1009.2
20260905185041 25 76 3.2 11.3 0.00 0.00 0.00 58 1009.2
20260905184541 25 101 3.2 12.9 0.00 0.00 0.00 59 1009.2
20260905184038 25 133 4.8 12.9 0.00 0.00 0.00 60 1009.2
20260905183037 25 128 4.8 12.9 0.00 0.00 0.00 62 1009.2
20260905182536 25 67 4.8 11.3 0.00 0.00 0.00 62 1009.2
20260905182034 25 127 4.8 11.3 0.00 0.00 0.00 61 1009.2
20260905181534 25 88 4.8 8.0 0.00 0.00 0.00 61 1009.2
20260905181030 25 61 4.8 12.9 0.00 0.00 0.00 62 1009.2
20260905180532 24 36 4.8 12.9 0.00 0.00 0.00 62 1009.2
20260905180029 25 82 4.8 9.7 0.00 0.00 0.00 62 1009.2
20260905175528 24 48 3.2 9.7 0.00 0.00 0.00 64 1009.2
20260905175026 23 112 4.8 12.9 0.00 0.00 0.00 65 1009.2
20260905174528 23 119 4.8 12.9 0.00 0.00 0.00 65 1009.2
20260905174027 23 80 4.8 11.3 0.00 0.00 0.00 65 1009.1
20260905173520 23 70 4.8 11.3 0.00 0.00 0.00 65 1009.1
20260905173018 23 61 4.8 8.0 0.00 0.00 0.00 66 1009.1
20260905172514 23 65 3.2 8.0 0.00 0.00 0.00 67 1009.1
20260905172013 23 69 3.2 8.0 0.00 0.00 0.00 68 1009.1
20260905171009 22 56 3.2 8.0 0.00 0.00 0.00 69 1009.1
20260905170509 22 80 3.2 8.0 0.00 0.00 0.00 70 1009.1
20260905170012 21 87 3.2 8.0 0.00 0.00 0.00 70 1009.0
20260905165510 21 87 3.2 8.0 0.00 0.00 0.00 72 1009.0
20260905165005 21 52 3.2 8.0 0.00 0.00 0.00 72 1009.0
20260905164505 21 49 4.8 8.0 0.00 0.00 0.00 73 1009.0
20260905164006 21 46 3.2 8.0 0.00 0.00 0.00 75 1009.0
20260905163002 20 63 4.8 9.7 0.00 0.00 0.00 78 1009.0
20260905162500 19 59 4.8 9.7 0.00 0.00 0.00 80 1009.0
20260905161955 19 63 4.8 8.0 0.00 0.00 0.00 80 1009.0
20260905161458 19 69 3.2 8.0 0.00 0.00 0.00 80 1009.0
20260905160956 18 51 1.6 8.0 0.00 0.00 0.00 82 1009.0
20260905160454 18 121 1.6 8.0 0.00 0.00 0.00 83 1009.0
20260905155451 17 65 3.2 11.3 0.00 0.00 0.00 85 1008.9
20260905154948 17 71 3.2 11.3 0.00 0.00 0.00 86 1008.9
20260905154449 17 88 3.2 11.3 0.00 0.00 0.00 86 1008.9
20260905153945 17 78 3.2 11.3 0.00 0.00 0.00 87 1008.6
20260905153445 17 72 3.2 11.3 0.00 0.00 0.00 88 1008.5
20260905152940 17 57 1.6 11.3 0.00 0.00 0.00 88 1008.5
20260905152441 16 57 0.0 8.0 0.00 0.00 0.00 90 1008.6
20260905151942 16 92 0.0 8.0 0.00 0.00 0.00 90 1008.6
20260905151439 16 285 0.0 0.0 0.00 0.00 0.00 91 1008.6
20260905150430 15 285 0.0 0.0 0.00 0.00 0.00 93 1008.5
20260905145424 15 285 0.0 0.0 0.00 0.00 0.00 94 1008.4
20260905144924 14 285 0.0 0.0 0.00 0.00 0.00 95 1008.4
20260905144426 13 285 0.0 0.0 0.00 0.00 0.00 95 1008.4
20260905143417 13 284 0.0 0.0 0.00 0.00 0.00 95 1008.2
20260905142916 12 285 0.0 0.0 0.00 0.00 0.00 95 1008.1
20260905142416 12 284 0.0 0.0 0.00 0.00 0.00 95 1007.8
20260905141914 12 284 0.0 0.0 0.00 0.00 0.00 95 1007.8
20260905141415 11 284 0.0 0.0 0.00 0.00 0.00 94 1007.8
20260905140914 11 285 0.0 0.0 0.00 0.00 0.00 94 1007.8
20260905140412 11 284 0.0 0.0 0.00 0.00 0.00 94 1007.8
20260905135909 11 284 0.0 0.0 0.00 0.00 0.00 93 1007.8
20260905135405 11 284 0.0 0.0 0.00 0.00 0.00 94 1007.8
20260905134907 11 284 0.0 0.0 0.00 0.00 0.00 93 1007.8
20260905133859 11 284 0.0 0.0 0.00 0.00 0.00 93 1007.7
20260905133358 11 284 0.0 0.0 0.00 0.00 0.00 93 1007.7
20260905132856 11 284 0.0 0.0 0.00 0.00 0.00 93 1007.7
20260905132352 11 284 0.0 0.0 0.00 0.00 0.00 93 1007.7
20260905131847 11 284 0.0 0.0 0.00 0.00 0.00 93 1007.7
20260905131349 11 284 0.0 0.0 0.00 0.00 0.00 93 1007.7
20260905130847 11 284 0.0 0.0 0.00 0.00 0.00 93 1007.7
20260905130344 12 284 0.0 0.0 0.00 0.00 0.00 93 1007.7
20260905125846 11 284 0.0 0.0 0.00 0.00 0.00 93 1007.7
20260905125340 11 284 0.0 0.0 0.00 0.00 0.00 93 1007.7
20260905124841 12 284 0.0 0.0 0.00 0.00 0.00 93 1007.7
20260905124337 12 284 0.0 0.0 0.00 0.00 0.00 93 1007.7
20260905123337 12 284 0.0 0.0 0.00 0.00 0.00 93 1007.7
20260905122834 12 284 0.0 0.0 0.00 0.00 0.00 93 1007.7
20260905121827 12 284 0.0 0.0 0.00 0.00 0.00 92 1007.7
20260905121325 12 284 0.0 0.0 0.00 0.00 0.00 92 1007.7
20260905120825 12 284 0.0 0.0 0.00 0.00 0.00 92 1007.7
20260905120324 12 284 0.0 0.0 0.00 0.00 0.00 92 1007.7
20260905115826 12 284 0.0 0.0 0.00 0.00 0.00 92 1007.7
20260905115324 12 284 0.0 0.0 0.00 0.00 0.00 92 1007.7
20260905114823 12 284 0.0 0.0 0.00 0.00 0.00 92 1007.7
20260905114321 12 284 0.0 0.0 0.00 0.00 0.00 92 1007.8
20260905113818 12 284 0.0 0.0 0.00 0.00 0.00 92 1007.8
20260905113313 12 284 0.0 0.0 0.00 0.00 0.00 92 1007.8
20260905112812 12 284 0.0 0.0 0.00 0.00 0.00 91 1007.8
20260905112311 12 284 0.0 0.0 0.00 0.00 0.00 91 1007.8
20260905111807 12 284 0.0 0.0 0.00 0.00 0.00 91 1007.8
20260905111304 12 284 0.0 0.0 0.00 0.00 0.00 91 1007.9
20260905110801 12 284 0.0 0.0 0.00 0.00 0.00 91 1007.9
20260905110302 12 284 0.0 0.0 0.00 0.00 0.00 91 1007.9
20260905105756 12 284 0.0 0.0 0.00 0.00 0.00 91 1007.9
20260905105256 12 284 0.0 0.0 0.00 0.00 0.00 91 1007.9
20260905104253 12 284 0.0 0.0 0.00 0.00 0.00 91 1008.1
20260905103751 12 284 0.0 0.0 0.00 0.00 0.00 90 1008.2
20260905103248 12 284 0.0 0.0 0.00 0.00 0.00 90 1008.2
20260905102748 12 284 0.0 0.0 0.00 0.00 0.00 90 1008.3
20260905101747 13 284 0.0 0.0 0.00 0.00 0.00 90 1008.3
20260905101242 13 284 0.0 0.0 0.00 0.00 0.00 90 1008.3
20260905100746 13 284 0.0 0.0 0.00 0.00 0.00 90 1008.3
20260905100242 13 284 0.0 0.0 0.00 0.00 0.00 89 1008.3
20260905095740 13 284 0.0 0.0 0.00 0.00 0.00 89 1008.4
20260905095233 13 284 0.0 0.0 0.00 0.00 0.00 89 1008.4
20260905094734 13 284 0.0 0.0 0.00 0.00 0.00 89 1008.4
20260905094232 13 284 0.0 0.0 0.00 0.00 0.00 89 1008.4
20260905093730 13 284 0.0 0.0 0.00 0.00 0.00 89 1008.4
20260905092226 13 284 0.0 0.0 0.00 0.00 0.00 89 1008.5
20260905091725 13 284 0.0 0.0 0.00 0.00 0.00 88 1008.5
20260905091224 13 284 0.0 0.0 0.00 0.00 0.00 89 1008.5
20260905090216 13 284 0.0 0.0 0.00 0.00 0.00 89 1008.5
20260905085708 13 284 0.0 0.0 0.00 0.00 0.00 89 1008.6
20260905085213 13 284 0.0 0.0 0.00 0.00 0.00 89 1008.6
20260905084706 13 284 0.0 0.0 0.00 0.00 0.00 89 1008.6
20260905084201 13 284 0.0 0.0 0.00 0.00 0.00 89 1008.9
20260905083700 13 284 0.0 0.0 0.00 0.00 0.00 88 1008.9
20260905082156 14 284 0.0 0.0 0.00 0.00 0.00 88 1008.9
20260905081648 14 284 0.0 0.0 0.00 0.00 0.00 88 1008.9
20260905081152 14 284 0.0 0.0 0.00 0.00 0.00 88 1009.0
20260905080652 14 284 0.0 0.0 0.00 0.00 0.00 88 1009.0
20260905080147 14 284 0.0 0.0 0.00 0.00 0.00 88 1009.0
20260905075647 14 284 0.0 0.0 0.00 0.00 0.00 89 1009.0
20260905075145 14 284 0.0 0.0 0.00 0.00 0.00 89 1009.0
20260905074643 14 284 0.0 0.0 0.00 0.00 0.00 89 1009.0
20260905074141 14 284 0.0 0.0 0.00 0.00 0.00 89 1009.0
20260905073640 14 284 0.0 0.0 0.00 0.00 0.00 89 1009.0
20260905072136 14 285 0.0 0.0 0.00 0.00 0.00 88 1009.0
20260905071637 14 284 0.0 0.0 0.00 0.00 0.00 88 1009.0
20260905071135 14 284 0.0 0.0 0.00 0.00 0.00 88 1008.9
20260905070636 14 284 0.0 0.0 0.00 0.00 0.00 88 1008.9
20260905070130 14 284 0.0 0.0 0.00 0.00 0.00 87 1008.9
20260905065628 14 284 0.0 0.0 0.00 0.00 0.00 87 1008.7
20260905064622 14 284 0.0 0.0 0.00 0.00 0.00 87 1008.7
20260905064118 14 285 0.0 0.0 0.00 0.00 0.00 86 1008.9
20260905063617 14 284 0.0 0.0 0.00 0.00 0.00 86 1008.9
20260905063114 14 284 0.0 0.0 0.00 0.00 0.00 87 1008.9
20260905062613 14 285 0.0 0.0 0.00 0.00 0.00 87 1008.9
20260905062111 15 284 0.0 0.0 0.00 0.00 0.00 87 1008.9
20260905061606 15 284 0.0 0.0 0.00 0.00 0.00 87 1008.9
20260905061107 15 284 0.0 0.0 0.00 0.00 0.00 87 1009.0
20260905060105 15 284 0.0 0.0 0.00 0.00 0.00 87 1009.0
20260905055606 15 284 0.0 0.0 0.00 0.00 0.00 87 1009.0
20260905054559 15 285 0.0 0.0 0.00 0.00 0.00 88 1009.0
20260905054059 15 284 0.0 0.0 0.00 0.00 0.00 88 1009.0
20260905053559 15 284 0.0 0.0 0.00 0.00 0.00 88 1009.0
20260905053053 15 284 0.0 0.0 0.00 0.00 0.00 89 1009.0
20260905052546 15 284 0.0 0.0 0.00 0.00 0.00 89 1009.0
20260905052040 15 284 0.0 0.0 0.00 0.00 0.00 89 1009.0
20260905051039 15 284 0.0 0.0 0.00 0.00 0.00 89 1009.0
20260905050540 15 284 0.0 0.0 0.00 0.00 0.00 88 1009.0
20260905050037 15 284 0.0 0.0 0.00 0.00 0.00 88 1009.0
20260905045529 15 285 0.0 0.0 0.00 0.00 0.00 88 1009.0
20260905045026 15 284 0.0 0.0 0.00 0.00 0.00 88 1009.0
20260905044528 15 285 0.0 0.0 0.00 0.00 0.00 88 1009.0
20260905044023 16 284 0.0 0.0 0.00 0.00 0.00 88 1008.7
20260905043515 16 284 0.0 0.0 0.00 0.00 0.00 88 1008.7
20260905043010 16 284 0.0 0.0 0.00 0.00 0.00 87 1008.7
20260905042508 16 285 0.0 0.0 0.00 0.00 0.00 87 1008.7
20260905041507 16 284 0.0 0.0 0.00 0.00 0.00 88 1008.7
20260905040502 16 284 0.0 0.0 0.00 0.00 0.00 88 1008.5
20260905040001 16 285 0.0 0.0 0.00 0.00 0.00 88 1008.5
20260905035459 16 285 0.0 0.0 0.00 0.00 0.00 88 1008.4
20260905034956 16 284 0.0 0.0 0.00 0.00 0.00 88 1008.4
20260905034453 16 284 0.0 0.0 0.00 0.00 0.00 88 1008.4
20260905033950 16 284 0.0 0.0 0.00 0.00 0.00 88 1008.3
20260905033449 17 284 0.0 3.2 0.00 0.00 0.00 88 1008.3
20260905032947 17 285 0.0 3.2 0.00 0.00 0.00 88 1008.3
20260905032448 17 284 0.0 0.0 0.00 0.00 0.00 88 1008.3
20260905031947 17 284 0.0 0.0 0.00 0.00 0.00 87 1008.3
20260905025938 17 284 0.0 3.2 0.00 0.00 0.00 87 1008.1
20260905025431 17 284 1.6 8.0 0.00 0.00 0.00 87 1008.0
20260905024928 17 284 1.6 8.0 0.00 0.00 0.00 87 1008.0
20260905024426 18 285 3.2 9.7 0.00 0.00 0.00 87 1008.0
20260905023921 18 285 3.2 9.7 0.00 0.00 0.00 86 1008.0
20260905023420 18 284 3.2 8.0 0.00 0.00 0.00 86 1008.0
20260905022919 18 284 3.2 8.0 0.00 0.00 0.00 86 1008.0
20260905022418 18 284 3.2 8.0 0.00 0.00 0.00 85 1008.0
20260905021912 18 281 4.8 11.3 0.00 0.00 0.00 85 1008.0
20260905021410 18 281 4.8 11.3 0.00 0.00 0.00 84 1008.0
20260905020909 19 275 4.8 11.3 0.00 0.00 0.00 82 1008.0
20260905020409 19 315 4.8 9.7 0.00 0.00 0.00 81 1008.0
20260905015909 20 336 3.2 8.0 0.00 0.00 0.00 81 1008.0
20260905014907 20 299 3.2 9.7 0.00 0.00 0.00 80 1007.9
20260905013857 20 299 3.2 8.0 0.00 0.00 0.00 78 1007.9
20260905013356 20 299 3.2 8.0 0.00 0.00 0.00 77 1007.9
20260905012357 21 322 3.2 9.7 0.00 0.00 0.00 76 1007.8
20260905011855 21 325 3.2 9.7 0.00 0.00 0.00 75 1007.8
20260905011355 21 325 4.8 14.5 0.00 0.00 0.00 76 1007.9
20260905010853 21 267 6.4 14.5 0.00 0.00 0.00 75 1007.9
20260905010351 22 314 6.4 11.3 0.00 0.00 0.00 74 1007.9
20260905005850 22 315 4.8 12.9 0.00 0.00 0.00 75 1008.0
20260905005350 22 325 6.4 12.9 0.00 0.00 0.00 74 1008.0
20260905004849 22 267 6.4 12.9 0.00 0.00 0.00 72 1008.0
20260905004353 22 316 6.4 14.5 0.00 0.00 0.00 73 1007.9
20260905003848 22 313 6.4 14.5 0.00 0.00 0.00 72 1007.9
20260905003347 22 336 4.8 11.3 0.00 0.00 0.00 72 1007.9
20260905002844 23 315 4.8 12.9 0.00 0.00 0.00 70 1007.8
20260905001340 23 340 6.4 14.5 0.00 0.00 0.00 70 1007.6
20260905000837 23 15 4.8 14.5 0.00 0.00 0.00 70 1007.6
20260905000334 23 333 6.4 12.9 0.00 0.00 0.00 69 1007.6
20260904235834 23 315 6.4 14.5 0.00 0.00 0.00 69 1007.5
20260904235331 23 346 6.4 14.5 0.00 0.00 0.00 69 1007.5
20260904234835 23 337 6.4 14.5 0.00 0.00 0.00 69 1007.5
20260904234330 23 0 8.0 14.5 0.00 0.00 0.00 69 1007.5
20260904233829 24 314 6.4 14.5 0.00 0.00 0.00 68 1007.5
20260904233328 24 341 6.4 16.1 0.00 0.00 0.00 67 1007.5
20260904232825 24 21 6.4 16.1 0.00 0.00 0.00 67 1007.5
20260904232327 25 325 6.4 12.9 0.00 0.00 0.00 66 1007.5
20260904231825 24 326 8.0 14.5 0.00 0.00 0.00 67 1007.5
20260904231324 25 322 6.4 14.5 0.00 0.00 0.00 64 1007.5
20260904230823 25 0 4.8 12.9 0.00 0.00 0.00 64 1007.5
20260904230325 25 311 4.8 11.3 0.00 0.00 0.00 65 1007.5
20260904225316 25 339 6.4 16.1 0.00 0.00 0.00 64 1007.7
20260904224315 25 316 6.4 14.5 0.00 0.00 0.00 64 1007.7
20260904223814 25 329 6.4 14.5 0.00 0.00 0.00 64 1007.7
20260904223312 25 257 6.4 14.5 0.00 0.00 0.00 65 1007.7
20260904222813 25 331 8.0 14.5 0.00 0.00 0.00 65 1007.8
20260904222308 25 317 8.0 17.7 0.00 0.00 0.00 64 1007.8
20260904221807 26 320 6.4 17.7 0.00 0.00 0.00 63 1007.8
20260904221310 25 319 8.0 14.5 0.00 0.00 0.00 63 1007.9
20260904220805 25 313 8.0 16.1 0.00 0.00 0.00 63 1007.9
20260904220304 26 309 6.4 16.1 0.00 0.00 0.00 63 1007.9
20260904215804 25 317 6.4 16.1 0.00 0.00 0.00 63 1007.9
20260904215300 25 327 8.0 14.5 0.00 0.00 0.00 64 1007.9
20260904214759 26 310 8.0 17.7 0.00 0.00 0.00 61 1007.9
20260904214254 26 306 6.4 17.7 0.00 0.00 0.00 62 1007.9
20260904213753 25 310 8.0 14.5 0.00 0.00 0.00 64 1007.9
20260904213251 26 320 8.0 14.5 0.00 0.00 0.00 62 1007.9
20260904212749 26 18 6.4 17.7 0.00 0.00 0.00 62 1008.0
20260904212250 26 313 6.4 17.7 0.00 0.00 0.00 61 1008.1
20260904211747 26 347 6.4 14.5 0.00 0.00 0.00 62 1008.0
20260904211251 25 325 6.4 14.5 0.00 0.00 0.00 63 1008.0
20260904210746 26 0 6.4 16.1 0.00 0.00 0.00 61 1008.0
20260904210246 26 335 6.4 16.1 0.00 0.00 0.00 62 1008.0
20260904205744 26 333 8.0 16.1 0.00 0.00 0.00 62 1007.9
20260904205244 26 350 8.0 16.1 0.00 0.00 0.00 62 1007.9
20260904204742 26 325 8.0 14.5 0.00 0.00 0.00 60 1008.0
20260904204242 26 305 8.0 14.5 0.00 0.00 0.00 59 1008.0
20260904203241 27 329 6.4 12.9 0.00 0.00 0.00 58 1008.0